sat.trackr.live / text

‹ back to catalog

STARLINK-37145

NORAD 68548 · 2026-070G

PAYLOAD ACTIVE UNKNOWN

§ Identity

Operator
Country
US
Launch date
2026-04-02
Launch site
AFETR
Launch vehicle
Mass (kg)
RCS (m²)

Purposes: comms

External: N2YO · Heavens-Above · Gunter

§ Orbital elements

Epoch: 2026-09-20T03:58:19.490304Z

Period
93.86 min
Inclination
53.1559°
Eccentricity
0.0005817
Mean motion
15.34177668 rev/d
Perigee alt
459.4 km
Apogee alt
467.3 km
Semi-major
6,841.5 km
B*
-9.5635e-3
RAAN
175.4506°
Arg perigee
93.3104°
Mean anomaly
266.8564°
Rev number
2,638

§ Raw data

STARLINK-371451 68548U 26070G   26263.16550336 -.00308699  00000+0 -95635-2 0  99902 68548  53.1559 175.4506 0005817  93.3104 266.8564 15.34177668 26384

JSON: /api/v1/satellites/68548 · /tle

For live sub-satellite position, see the globe view (requires WebGL).

§ Visibility from observer

Set your observer location to see the next 7 days of passes ≥ 10°. The values pass through the URL so the page stays shareable.

No JS? Fill the form by hand. The geolocation button needs JavaScript.